Regional Weather Roundup
Issued by NWS

Home | Current Version | Previous Version | Text Only | Print | Product List | Glossary Off
Versions: 1 2 3 4 5 6 7 8 9 10 11 12 13 14 15 16 17 18 19 20 21 22 23 24 25 26 27 28 29 30 31 32 33 34 35 36 37 38 39 40 41 42 43 44 45 46 47 48 49 50

000
ASUS43 KOAX 121410
RWRNE

WEATHER ROUNDUP FOR NEBRASKA
NATIONAL WEATHER SERVICE OMAHA NE
900 AM CDT SAT JUL 12 2014

NOTES: SATELLITE DATA IS BEING USED TO AUGMENT CLOUD COVER ABOVE
       12000 FEET.
       "FAIR" INDICATES FEW OR NO CLOUDS BELOW 12,000 FEET WITH NO
       SIGNIFICANT WEATHER AND/OR OBSTRUCTIONS TO VISIBILITY.

  * THESE STATIONS DO NOT REPORT WEATHER SUCH AS RAIN...SNOW OR FOG.

NEZ001>004-019>022-054>056-121500-
NEBRASKA PANHANDLE

CITY           SKY/WX    TMP DP  RH WIND       PRES   REMARKS
SCOTTSBLUFF    CLOUDY    64  61  90 W5        30.21R
ALLIANCE       CLOUDY    62  59  90 N9G18     30.19R
CHADRON        MOSUNNY   67  61  81 S3        30.16R
KIMBALL        CLOUDY    63  61  95 N9        30.21S
SIDNEY         CLOUDY    65  61  87 N13       30.20R
$$

NEZ057>060-069>072-079>082-121500-
SOUTHWEST NEBRASKA

CITY           SKY/WX    TMP DP  RH WIND       PRES   REMARKS
NORTH PLATTE   CLOUDY    71  66  84 N10       30.09R
IMPERIAL       CLOUDY    68  66  93 NW14      30.09S FOG
LEXINGTON      PTSUNNY   74  71  90 E7        30.02R
MCCOOK         PTSUNNY   76  70  82 N7        30.03R
OGALLALA       CLOUDY    65  63  91 NW10      30.12S
$$

NEZ005>010-023>029-035>040-094-121500-
NORTH CENTRAL NEBRASKA

CITY           SKY/WX    TMP DP  RH WIND       PRES   REMARKS
VALENTINE      CLOUDY    70  67  90 N10       30.11R
AINSWORTH      CLOUDY    66  66  99 E3        30.10S
BROKEN BOW     CLOUDY    72  69  90 NE7       30.05R
O`NEILL        CLOUDY    67  64  87 NW9       30.09R
ORD            CLOUDY    70  66  87 N7        30.04R
THEDFORD       CLOUDY    69  67  94 N7        30.12R
$$

NEZ041-046>049-061>064-073>077-083>087-121500-
SOUTH CENTRAL NEBRASKA

CITY           SKY/WX    TMP DP  RH WIND       PRES   REMARKS
GRAND ISLAND   CLOUDY    73  67  81 S6        30.00R
AURORA         PTSUNNY   75  69  81 S7        29.99R
HASTINGS       PTSUNNY   74  64  71 S6        30.00S
HEBRON         MOSUNNY   80  65  61 S7        30.00F
HOLDREGE       PTSUNNY   75  62  65 S5        30.00S
KEARNEY *      CLOUDY    73  64  73 E3        30.00S
YORK           PTSUNNY   73  68  83 S10       29.99S
$$

NEZ011>018-030>034-042>045-121500-
NORTHEAST NEBRASKA

CITY           SKY/WX    TMP DP  RH WIND       PRES   REMARKS
NORFOLK        LGT RAIN  70  67  90 CALM      30.00R
ALBION         CLOUDY    68  67  97 SE6       30.01R
BLAIR          CLOUDY    74  68  81 E8        30.00S
FREMONT        PTSUNNY   76  69  78 E9        29.99F
TEKAMAH        PTSUNNY   73  69  87 CALM      29.99S
WAYNE          LGT RAIN  70  68  94 CALM      30.01R
$$

NEZ050>053-065>068-078-088>093-121500-
SOUTHEAST NEBRASKA

CITY           SKY/WX    TMP DP  RH WIND       PRES   REMARKS
LINCOLN        PTSUNNY   80  68  66 S8        29.99F
OMAHA EPPLEY   CLOUDY    75  68  78 SE8       29.99S
BEATRICE       PTSUNNY   76  64  67 S6        30.01R
FALLS CITY     PTSUNNY   79  71  76 SE5       30.02R
NEBRASKA CITY  PTSUNNY   78  71  77 S5        30.01S
PLATTSMOUTH    PTSUNNY   77  70  79 SE5       30.00S
$$

NEZ044-045-051>053-067-121500-
OMAHA AREA

CITY           SKY/WX    TMP DP  RH WIND       PRES   REMARKS
OMAHA EPPLEY   CLOUDY    75  68  78 SE8       29.99S
BLAIR          CLOUDY    74  68  81 E8        30.00S
FREMONT        PTSUNNY   76  69  78 E9        29.99F
MILLARD        PTSUNNY   76  70  81 E5        29.99S
PLATTSMOUTH    PTSUNNY   77  70  79 SE5       30.00S
WAHOO          PTSUNNY   76  70  83 SE10      29.98F
$$


USA.gov is the U.S. government's official web portal to all federal, state and local government web resources and services.